Regional Weather Roundup
Issued by NWS Key West, FL

Home | Current Version | Previous Version | Text Only | Print | Product List | Glossary On
Versions: 1 2 3 4 5 6 7 8 9 10 11 12 13 14 15 16 17 18 19 20 21 22 23 24 25 26 27
000
ASUS42 KKEY 310610
RWRKEY

FLORIDA KEYS REGIONAL WEATHER ROUNDUP
NATIONAL WEATHER SERVICE KEY WEST FLORIDA
200 AM EDT SAT JUL 31 2021

...FLORIDA KEYS...

CITY           SKY/WX    TMP DP  RH WIND       PRES   REMARKS
KEY WEST       PTCLDY    85  75  72 SE12      30.07F HX  93
MARATHON       MOCLDY    84  76  76 SE7       30.06F HX  93

...SOUTH FLORIDA...

CITY           SKY/WX    TMP DP  RH WIND       PRES   REMARKS
HOMESTEAD      CLEAR     79  76  89 CALM      30.07F
WEST KENDALL   CLEAR     81  75  82 CALM      30.08F
MIAMI          PTCLDY    83  76  79 CALM      30.08F HX  91
OPA LOCKA      CLEAR     80  76  87 SE3       30.08F
PEMBROKE PINES CLEAR     82  74  76 S5        30.09F
FT LAUDERDALE  PTCLDY    84  75  74 S3        30.07F HX  92
FT LAUD EXEC   CLEAR     83  76  79 CALM      30.07F HX  91
POMPANO BEACH  CLEAR     84  74  71 CALM      30.07F HX  91
BOCA RATON     NOT AVBL
WEST PALM BCH  PTCLDY    83  76  79 S5        30.08S HX  91

...SOUTHWEST FLORIDA...

CITY           SKY/WX    TMP DP  RH WIND       PRES   REMARKS
MARCO ISLAND   NOT AVBL
NAPLES         CLEAR     83  77  82 E3        30.06F HX  92
FT MYERS-SW AP CLEAR     79  74  84 CALM      30.07S
FORT MYERS     CLEAR     81  76  84 CALM      30.06S

...ADJACENT COASTAL WATERS...

STATION/POSITION TIME  SKY/WX   TEMP    WIND        PRES    WAVE
                                AIR SEA DIR/SP/G            HT/PER
                 (UTC)          (F)     (DEG/KT/KT) (MB)    (FT/S)
PULASKI SHOAL LT NOT AVBL
SAND KEY         0550            84     120/ 12/ 15 1018.5F
SOMBRERO KEY     0550                   130/  9/ 12 1017.3F
LONG KEY         0550                               1018.0F
FOWEY ROCKS      0600            84 86  110/  5/  5 1018.7F
SATAN SHL BUOY   0530            85 87                N/A     2/ 3
LOOP CURR BUOY   0500            85 87   90/  6/  8 1018.4F
PULLEY RDG BUOY  0556               87                N/A     1

...INTERNATIONAL WEATHER...

CITY           SKY/WX    TMP DP  RH WIND       PRES   REMARKS
NASSAU         PTCLDY    82  75  78 SE6       30.10F
HAVANA         PTCLDY    77  77 100 CALM      30.06S
VARADERO       PTCLDY    75  73  94 SE3       30.06F
CANCUN         PTCLDY    84  79  84 E5        30.04F HX  96
COZUMEL          N/A    N/A N/A N/A MISG        N/A
KINGSTON       PTCLDY    82  72  69 E16       30.00S

$$



USA.gov is the U.S. government's official web portal to all federal, state and local government web resources and services.